Theta_e
334 335 337 342 343 344 345 345 345 345 344 344 344 345 345 345 344 342 342 342 342 341 341 341 341 342 342 342 342 342 341 341 341 342 342 342 342 342 342 342 342 343 343 344 344 344 343 343 342 342 343 344 343 343 343 344 344 344 345 345 345 345 345 344 345 344 344 346 345 345 344 344 345 345 345 345 345 345 344 344 344 343 343 344 346
333 336 336 339 344 344 345 345 345 345 345 344 345 345 344 343 342 342 342 342 342 342 342 342 342 342 342 342 342 342 342 342 341 342 342 342 341 341 341 342 342 342 342 343 343 343 342 342 342 344 343 344 344 343 343 343 344 344 345 344 344 344 344 344 344 344 344 344 343 345 345 344 344 344 345 344 344 345 344 344 343 341 343 345 345
336 336 336 338 345 345 344 344 344 345 345 345 344 344 343 343 343 343 342 342 342 342 342 342 342 342 342 342 342 342 342 342 342 341 341 342 341 341 341 341 341 341 342 343 343 343 342 342 342 343 343 343 343 343 342 343 343 344 344 343 344 343 344 345 345 344 344 344 343 345 346 344 345 344 344 345 344 345 344 344 345 344 342 345 345
335 335 336 339 345 344 344 343 345 345 344 344 344 343 344 344 343 342 343 342 341 342 342 342 341 342 342 342 342 342 342 342 342 341 340 341 340 340 340 340 341 341 341 341 342 342 341 341 342 342 342 342 342 341 342 341 342 343 343 343 343 344 344 344 345 345 345 345 345 345 344 343 344 345 346 345 345 344 343 343 343 343 343 345 346
333 334 335 336 336 343 346 343 344 345 344 345 345 345 345 345 344 343 343 341 341 342 342 342 342 341 342 343 342 342 341 341 342 340 340 340 339 339 339 339 339 339 338 339 341 341 341 341 340 340 338 338 338 340 341 341 341 341 341 341 341 342 342 343 344 345 346 346 345 344 342 341 341 343 345 345 345 345 344 344 343 343 344 344 344
333 334 334 333 332 336 346 345 346 345 345 346 345 346 345 344 343 342 342 341 341 341 341 341 340 340 340 340 341 342 342 341 340 340 339 338 339 339 338 338 338 337 337 337 337 338 337 336 336 336 335 336 336 337 339 340 340 339 339 339 340 340 341 341 342 342 344 344 345 343 342 341 341 341 345 345 344 343 343 343 345 345 344 344 342
334 334 334 333 332 337 347 346 347 346 345 346 346 344 343 343 342 342 341 341 341 341 340 339 338 337 338 338 338 338 340 341 339 339 339 338 338 338 336 337 338 336 336 336 336 335 335 334 333 333 333 334 334 334 334 334 334 335 335 336 336 337 338 340 341 342 342 342 341 340 340 340 341 341 344 346 345 344 343 342 342 344 344 344 345
334 335 333 331 333 341 346 346 347 346 346 346 345 344 343 342 342 341 341 341 341 340 338 336 334 333 334 336 337 337 337 339 340 340 338 338 338 337 336 336 337 334 333 335 335 334 334 332 331 331 332 333 332 331 330 331 331 332 332 333 334 335 336 337 338 340 342 339 340 340 339 339 340 341 343 345 346 345 345 343 342 342 342 343 346
333 333 333 332 332 344 346 346 346 346 345 344 343 343 343 342 342 341 340 340 339 339 337 333 332 332 333 334 334 335 335 335 336 334 338 338 338 337 336 334 334 333 331 332 332 332 332 331 330 330 331 331 330 329 329 330 331 331 331 332 333 334 334 335 337 338 337 338 339 339 339 339 339 339 341 344 345 346 345 344 343 343 343 343 344
332 332 331 330 331 342 345 347 347 343 341 343 342 342 341 341 340 340 339 338 338 337 334 331 330 331 331 331 331 332 334 334 334 330 332 336 336 335 333 332 333 331 331 330 331 331 331 330 330 330 331 330 329 329 329 330 330 330 330 331 331 331 331 332 334 336 335 337 336 338 339 342 339 339 340 344 345 345 344 343 343 342 343 343 343
333 333 334 332 333 344 340 344 343 344 345 343 342 341 340 340 339 339 338 336 335 335 333 330 329 329 329 330 331 331 332 332 331 329 332 333 332 331 329 331 332 332 332 330 331 330 330 330 327 330 331 328 327 328 329 328 328 329 329 328 328 328 329 329 331 331 334 334 335 336 338 341 340 339 342 344 345 344 343 343 342 343 343 343 343
333 334 334 336 341 340 342 342 343 342 341 342 342 341 341 340 339 339 337 335 335 332 330 329 329 329 329 330 331 329 329 329 329 328 332 332 334 331 335 331 331 331 330 331 332 328 331 331 329 329 330 328 328 328 327 327 327 328 328 328 327 327 328 327 325 331 332 332 333 335 336 337 338 339 343 344 345 344 342 342 341 340 341 342 342
332 333 334 335 335 340 341 340 342 341 340 341 340 340 340 340 339 339 336 335 333 331 330 329 329 330 331 330 330 331 333 331 332 332 331 334 335 334 331 329 330 330 330 330 331 330 329 328 328 327 327 327 327 326 326 325 325 326 327 327 327 328 328 327 323 328 331 331 332 334 335 337 338 341 342 343 344 343 343 341 341 341 340 342 343
331 332 331 332 335 338 337 339 340 341 342 340 342 341 340 337 337 338 335 332 330 329 329 329 329 330 330 328 328 331 332 331 331 331 331 333 334 333 332 328 331 329 330 329 328 328 328 327 326 325 325 325 325 325 324 324 325 326 326 328 329 329 328 327 326 324 327 328 333 333 334 337 337 340 342 342 342 342 343 342 341 340 339 339 341
327 328 327 325 325 327 335 337 339 342 341 341 342 342 340 335 335 334 331 329 328 328 329 329 328 329 328 326 327 328 330 330 330 330 330 332 332 332 331 331 329 330 328 328 327 327 326 326 325 325 325 325 324 324 324 324 325 327 327 327 327 328 329 324 317 316 317 320 324 330 333 336 339 341 342 342 342 342 341 340 340 340 340 339 339
326 323 323 321 321 321 322 331 335 336 340 340 340 338 332 332 333 332 330 329 328 328 328 328 328 329 327 326 326 326 326 328 329 328 330 332 331 331 329 329 329 328 328 327 327 327 326 326 326 325 325 325 325 324 324 325 325 326 327 327 327 328 327 326 314 312 313 316 320 328 332 334 338 340 341 341 341 340 340 340 340 340 339 339 339
323 323 319 319 318 318 318 321 327 332 332 335 337 332 330 330 331 330 329 329 329 329 329 329 328 327 327 326 325 324 325 326 328 328 329 330 330 329 328 327 328 328 327 327 326 326 326 326 326 325 325 325 325 325 324 325 325 326 326 327 327 326 325 325 311 311 311 314 317 318 326 333 336 339 340 340 340 339 339 339 339 340 339 340 340
319 319 318 317 316 316 317 317 319 320 322 326 329 335 331 330 330 330 330 330 329 329 329 329 327 327 326 325 323 322 323 325 326 327 328 329 329 328 327 326 326 327 326 325 325 325 325 324 325 325 325 324 324 324 323 323 324 325 325 326 326 325 324 322 311 312 311 317 314 318 322 327 333 336 339 339 339 338 337 336 336 338 340 340 340
315 315 316 316 315 315 316 315 318 317 319 321 319 322 332 332 333 333 331 330 329 329 328 327 326 325 324 323 322 322 323 325 326 326 327 328 328 327 326 325 324 324 325 323 323 323 323 323 323 324 323 323 323 322 322 322 323 324 324 325 325 324 322 316 311 310 313 313 316 319 319 327 332 332 334 336 336 336 335 335 335 336 335 337 338
313 313 313 314 314 314 315 315 315 316 317 319 318 318 328 328 332 332 330 329 328 327 327 326 325 324 323 322 322 319 319 318 325 321 325 326 326 324 324 323 322 322 323 321 322 321 322 322 322 322 323 322 322 321 321 322 323 323 324 324 324 322 313 312 311 311 313 314 317 317 320 330 333 331 329 332 333 330 329 329 330 332 333 335 337
312 311 311 312 312 313 313 314 314 315 315 317 317 317 323 323 322 329 329 328 327 327 325 325 322 323 321 321 319 316 312 312 316 318 322 319 324 324 323 322 321 321 322 320 320 320 321 320 320 321 321 321 321 320 320 321 322 323 323 323 322 313 313 312 313 314 314 315 316 316 325 329 330 331 330 330 330 328 327 327 328 329 331 334 336
309 310 311 311 311 311 312 314 314 314 314 316 316 317 317 319 314 315 321 321 324 322 321 318 321 314 320 316 314 316 312 311 317 320 319 318 319 322 322 321 321 321 321 320 320 320 320 320 320 320 321 320 320 313 314 317 320 321 322 322 314 312 313 313 313 313 315 313 317 317 326 328 329 330 331 330 329 328 328 328 328 329 331 332 335
308 309 310 311 310 311 311 312 313 313 313 314 315 315 313 314 313 313 316 320 320 318 313 316 313 313 315 313 316 312 312 311 316 318 318 320 318 321 321 320 320 319 321 320 319 319 320 319 319 320 319 318 313 311 312 311 311 319 319 313 312 313 313 313 313 314 313 313 316 320 325 327 328 329 330 331 330 328 327 326 327 328 330 331 333
307 307 310 311 311 310 310 311 314 312 313 313 314 314 312 313 313 312 312 313 312 314 312 312 312 313 313 314 312 313 311 309 317 317 317 311 312 317 320 319 319 318 320 317 317 317 319 318 318 318 316 313 312 311 312 311 312 313 312 312 312 313 313 313 313 312 313 314 315 321 325 327 327 328 329 330 331 331 328 325 325 326 329 331 333
308 307 309 309 311 310 311 311 312 313 312 312 313 315 312 313 314 312 312 312 312 312 311 311 311 311 313 314 312 313 309 309 309 309 309 309 309 310 310 310 311 309 317 311 311 310 312 310 311 313 311 312 311 311 311 312 313 313 312 312 312 313 313 313 312 312 312 313 314 322 324 326 327 328 329 329 330 331 330 326 324 326 328 330 332
310 306 306 307 311 311 311 311 313 314 312 312 312 316 313 311 313 315 312 312 312 311 311 311 311 311 311 315 313 310 309 309 309 309 309 309 309 309 310 310 309 310 313 311 310 310 310 310 310 311 311 311 311 311 311 313 311 312 312 312 312 313 312 311 311 312 312 313 314 321 324 325 326 328 329 329 329 330 330 327 325 325 327 329 330
305 305 306 307 313 310 311 312 312 314 313 313 313 312 311 312 313 318 314 313 312 311 311 311 312 311 311 314 312 309 308 308 308 308 308 309 309 309 309 310 309 309 311 310 310 310 310 310 310 310 310 310 310 310 311 311 312 311 311 311 312 312 311 310 310 311 312 313 315 320 322 324 326 327 328 329 330 329 330 329 327 324 325 326 330
306 306 307 307 311 311 311 312 312 314 313 313 313 312 311 312 316 316 315 319 313 312 311 312 311 311 313 312 316 309 308 308 307 307 308 308 309 309 309 309 310 310 311 311 309 310 310 310 310 310 310 310 309 310 310 311 311 311 310 310 312 311 310 310 310 311 312 312 313 317 321 324 325 326 328 329 330 329 329 329 328 323 324 326 327
306 306 307 308 309 314 312 312 311 314 313 313 313 311 312 312 311 311 313 319 311 311 311 312 310 311 311 312 315 311 308 307 307 307 308 308 308 308 309 309 310 309 310 309 310 309 309 310 310 310 310 309 309 309 311 310 310 311 310 310 311 310 310 310 310 310 311 312 312 314 321 323 324 325 327 328 330 331 328 328 328 325 323 324 327
305 306 307 309 310 311 311 312 311 314 313 313 313 312 312 311 311 310 313 315 311 311 312 310 310 310 310 310 311 313 309 307 307 307 307 308 308 308 309 308 309 309 310 309 310 310 309 309 310 310 309 309 309 309 310 309 309 310 310 310 310 309 310 309 309 310 311 312 312 314 319 322 323 324 325 327 329 330 330 328 328 326 325 325 326
307 306 307 309 314 310 311 311 312 316 314 313 314 312 313 312 314 310 311 311 311 312 311 310 310 309 311 309 310 311 312 308 308 307 308 307 308 308 308 309 308 309 310 309 310 311 310 310 310 309 309 309 309 309 309 309 308 308 309 309 309 309 309 309 310 311 311 311 312 314 314 320 321 323 324 325 327 329 329 328 327 326 326 326 326
305 306 306 310 311 310 311 311 312 313 315 313 315 312 312 312 313 311 311 311 314 309 309 309 312 309 310 309 310 310 314 308 308 308 310 307 307 307 307 308 308 308 310 309 309 310 310 310 310 311 311 311 310 309 310 308 307 307 308 308 309 309 309 309 310 310 311 312 313 313 313 314 319 321 322 323 324 327 328 329 329 327 328 328 326
306 307 306 309 310 310 314 310 312 311 313 313 312 312 312 313 311 311 313 313 310 310 310 308 309 310 310 309 309 311 313 308 308 308 310 307 308 307 307 309 308 309 309 310 309 310 310 310 310 312 311 311 310 309 310 309 307 307 308 308 308 308 309 309 310 310 311 312 312 312 313 313 314 317 319 321 322 326 328 328 330 329 328 327 327
308 305 307 308 312 311 314 311 315 309 315 313 315 312 312 315 316 310 313 311 310 309 312 308 310 310 309 308 308 311 311 309 308 307 308 307 308 307 307 307 308 309 309 309 309 309 309 309 310 311 311 310 309 309 309 307 307 307 308 308 308 308 309 309 310 310 311 311 311 311 311 312 313 313 314 318 321 323 324 325 327 331 330 329 328
307 305 307 306 309 309 317 310 314 309 311 312 311 313 314 312 313 311 310 310 311 309 309 308 308 309 309 308 308 311 310 309 309 307 307 307 308 307 307 307 308 310 308 309 309 309 309 309 311 310 310 310 310 310 309 307 307 306 307 308 307 308 310 309 309 310 311 311 311 310 311 312 313 313 313 315 319 319 321 324 326 327 329 329 328
305 305 307 307 307 307 313 309 309 309 309 313 311 311 311 312 313 316 310 310 309 308 308 308 308 308 309 308 308 311 310 308 309 308 307 307 308 307 307 308 308 309 308 309 310 309 309 310 311 311 309 309 310 308 309 308 307 307 307 308 308 310 309 308 309 310 310 311 310 310 311 312 313 313 318 316 315 316 321 323 324 326 328 330 330
306 305 306 305 307 307 309 310 309 309 310 310 311 311 312 311 312 313 311 310 309 308 308 308 308 308 308 308 308 310 309 308 309 308 307 308 308 306 307 308 309 308 308 308 309 309 309 310 311 312 311 309 309 308 308 308 307 307 307 307 308 309 308 309 309 310 310 310 311 312 313 313 314 318 316 315 315 316 319 321 323 325 326 327 328
307 305 305 306 305 306 307 312 309 310 309 310 311 310 311 311 310 310 314 310 309 309 308 308 307 307 308 308 308 308 310 308 308 308 307 310 309 307 307 308 309 308 308 308 308 310 311 311 310 311 312 310 309 308 307 307 307 306 306 307 307 308 307 308 308 311 308 308 310 310 311 312 314 315 317 317 317 318 319 321 322 323 324 325 326
305 305 305 305 305 306 309 308 310 308 309 309 312 310 311 311 310 308 308 310 309 310 308 308 307 307 307 307 309 308 309 308 308 308 308 309 307 307 307 308 309 308 308 308 309 310 311 311 310 310 312 311 310 309 308 307 306 305 306 307 307 307 308 309 307 307 307 307 308 309 309 309 311 312 315 318 319 320 320 321 321 321 322 324 324
305 307 308 305 305 305 306 307 307 308 310 309 310 309 309 309 307 307 306 307 308 312 308 306 307 307 308 307 307 306 307 309 308 307 307 309 307 307 307 308 308 308 308 307 308 308 309 309 310 311 310 311 311 310 308 307 305 305 306 307 307 307 308 308 307 306 307 307 306 307 307 308 309 310 312 314 318 319 321 321 324 324 324 324 324
304 305 305 305 304 304 305 305 306 308 310 308 309 307 306 305 305 305 304 305 308 309 306 305 307 307 307 306 307 306 306 306 309 307 307 308 308 307 307 307 308 309 308 307 308 309 310 310 311 311 311 309 309 310 308 307 304 304 305 305 306 308 309 307 306 306 306 306 306 305 306 307 307 308 309 311 313 316 318 320 321 321 322 323 324
305 304 304 304 304 304 304 305 306 307 308 308 306 307 306 306 305 305 304 305 305 305 304 305 307 307 306 306 306 305 305 306 308 308 308 307 306 306 306 306 307 308 309 308 309 310 309 310 310 310 312 310 308 309 308 305 303 301 300 301 304 306 310 307 304 306 306 305 305 305 305 305 306 307 308 309 310 311 314 317 317 318 320 321 323
302 303 304 304 305 304 304 305 306 306 307 311 307 306 306 306 305 305 304 306 306 307 305 307 306 306 305 305 306 305 305 305 306 308 307 307 306 306 306 306 307 309 307 306 307 307 308 309 310 309 309 309 308 310 309 307 302 304 304 301 299 299 305 306 304 305 306 305 305 304 305 305 305 306 307 308 308 309 311 314 315 316 318 319 321
305 303 304 304 304 308 304 304 305 305 306 311 312 308 309 307 307 306 306 306 306 309 305 305 305 306 304 304 305 305 305 305 305 306 307 307 307 306 306 306 306 308 307 306 306 307 308 309 309 310 310 306 306 306 310 309 306 304 299 299 300 300 297 300 302 302 307 305 304 304 305 304 305 306 307 306 306 308 309 311 312 314 316 317 319
302 303 304 305 306 303 304 304 305 305 305 309 306 307 307 305 305 305 306 304 304 303 303 303 304 307 305 303 304 304 304 305 305 305 307 307 307 306 305 306 306 307 308 306 306 307 308 309 309 308 309 307 306 306 307 309 307 309 303 301 299 298 297 300 303 300 305 303 303 304 305 304 304 305 305 306 306 307 308 309 310 312 313 315 317
303 303 304 305 304 304 305 304 305 305 305 306 307 306 305 303 303 302 300 299 299 300 301 301 302 302 301 303 304 304 304 304 305 305 305 308 306 305 305 305 306 307 308 306 306 307 307 308 308 308 308 309 308 306 305 309 309 309 308 307 305 298 298 301 301 295 303 304 303 303 303 304 304 304 305 306 306 306 309 308 309 310 311 313 316
303 304 304 304 304 305 304 304 305 305 306 305 306 308 302 302 302 302 301 300 299 300 301 302 302 303 302 302 302 303 304 303 304 304 304 306 307 305 304 305 305 306 309 306 305 306 307 308 309 308 308 309 309 306 305 306 308 308 309 308 308 307 306 302 297 299 295 300 302 302 302 304 304 304 305 305 306 307 307 308 308 309 310 312 314
304 304 304 304 304 304 303 304 306 308 305 305 305 309 303 302 301 302 307 302 301 300 302 303 303 306 301 302 302 302 303 304 303 303 304 304 307 305 304 304 305 306 308 305 305 306 306 307 308 308 308 308 308 306 305 306 303 304 308 306 307 306 306 305 304 300 297 294 296 303 304 304 304 304 306 306 306 306 306 307 308 309 309 310 312
304 303 304 304 304 304 304 303 303 304 303 307 306 304 309 302 302 301 301 304 305 304 304 304 302 302 301 301 301 302 302 303 303 303 303 303 306 305 303 304 304 306 307 305 305 306 306 306 305 305 305 306 307 308 306 305 304 303 304 304 305 304 304 304 304 303 298 296 296 297 298 303 304 304 304 306 307 307 308 308 309 309 309 310 311
304 307 303 303 304 304 306 303 303 303 304 303 303 303 303 306 302 301 301 301 302 301 301 301 301 301 300 300 300 301 301 302 302 303 302 303 303 304 303 303 304 306 307 304 305 305 306 306 305 304 304 304 306 306 306 305 305 305 305 304 302 302 302 301 301 302 301 300 295 296 298 298 298 301 304 305 306 307 308 308 308 308 308 308 310
304 304 303 302 303 302 302 302 302 302 303 302 302 302 302 302 302 301 301 301 301 301 300 300 300 300 300 300 300 300 301 301 302 302 302 302 303 304 303 303 305 305 305 304 304 305 305 306 306 305 303 303 303 304 304 305 305 305 305 304 303 302 301 299 300 300 300 298 298 298 299 300 300 299 302 305 306 306 307 307 307 307 308 308 309
Wind_Speed
2 5 5 8 10 8 10 9 9 9 8 8 8 8 7 7 8 8 8 8 8 8 8 9 9 9 9 9 9 8 8 8 8 9 9 9 9 9 10 10 10 10 10 10 10 8 6 10 10 10 10 11 10 10 11 10 11 11 10 10 10 11 10 9 9 13 11 11 13 13 12 13 13 12 12 12 12 12 11 11 12 9 9 6 7
5 5 3 4 10 10 9 9 9 8 8 7 8 8 8 8 8 8 8 8 8 8 9 9 9 9 9 9 9 9 9 9 9 9 10 10 10 10 11 11 11 11 11 11 10 10 10 10 10 11 11 11 12 12 12 11 10 11 11 12 12 12 11 9 12 12 11 11 14 13 14 12 12 15 13 14 13 13 12 12 12 9 5 5 9
3 3 3 5 10 9 8 8 7 6 7 8 7 8 8 7 8 8 8 8 8 8 9 9 10 10 10 9 9 9 9 9 9 9 9 9 10 10 10 11 11 11 11 11 12 12 12 12 12 12 12 12 13 12 11 12 11 11 11 11 12 12 12 12 12 12 12 13 12 12 14 13 13 13 13 13 13 14 14 13 12 13 6 11 12
4 4 4 5 7 8 9 8 7 7 7 7 7 7 7 7 7 7 7 8 8 9 9 10 10 10 10 10 10 11 11 10 10 9 9 9 9 9 10 11 11 12 12 12 12 12 12 12 12 12 13 13 13 13 13 12 12 12 12 12 12 13 13 13 13 13 14 14 13 12 6 6 8 11 13 13 12 15 13 13 14 14 14 12 14
3 3 3 3 3 5 7 7 7 7 7 7 6 6 6 6 7 7 8 8 8 8 9 9 10 11 11 12 12 11 10 9 10 9 9 9 9 10 10 11 12 12 12 12 12 12 12 12 12 13 13 14 13 13 13 12 12 12 13 13 13 13 13 13 13 14 14 14 14 12 6 4 4 8 12 13 13 13 13 14 14 14 15 16 15
4 3 3 3 3 3 8 8 8 7 7 6 6 6 6 6 6 7 7 8 8 9 10 11 11 11 11 11 11 11 10 10 10 9 8 9 8 9 10 10 11 12 12 13 13 13 13 13 13 13 13 13 13 13 13 12 12 13 13 13 13 13 13 14 14 14 15 15 15 6 5 5 5 4 11 14 14 14 13 14 14 14 16 17 15
3 3 3 3 3 3 8 8 8 6 6 5 5 6 6 6 7 8 8 9 9 10 10 10 11 12 12 12 12 9 8 8 7 9 9 8 9 8 10 10 10 12 12 12 13 13 13 13 14 14 14 13 13 13 13 13 13 13 13 13 13 13 13 13 14 15 15 11 5 5 4 5 5 4 10 14 15 15 15 14 14 16 16 17 16
2 2 3 3 3 5 8 7 6 5 5 5 6 6 7 7 8 8 9 9 10 10 11 13 14 14 15 15 15 15 14 7 8 6 7 8 7 8 9 11 9 11 11 10 11 12 12 13 14 14 13 13 13 13 13 13 14 13 13 13 13 13 13 14 14 14 15 8 4 4 4 5 5 4 9 14 15 16 15 16 15 16 16 16 14
3 3 2 2 3 6 7 6 5 5 5 6 7 7 8 8 8 8 9 9 9 10 13 14 15 15 16 16 15 15 15 11 7 6 4 5 7 7 10 11 10 10 10 10 9 11 11 12 13 14 12 11 12 13 14 15 14 14 14 14 14 14 14 14 14 15 10 5 5 4 5 5 5 5 8 14 15 16 16 15 13 15 16 16 14
3 3 2 2 2 5 5 5 5 6 7 7 7 8 9 9 9 9 9 8 9 11 13 13 14 15 15 15 15 15 15 15 14 12 14 8 6 7 8 10 9 10 10 12 11 11 11 12 13 14 11 9 11 13 15 15 15 14 13 14 14 15 15 15 15 13 6 6 6 6 6 8 8 7 9 13 15 16 15 16 12 11 11 14 14
5 5 5 4 3 6 9 9 9 8 7 7 7 9 10 10 10 9 8 8 9 11 12 12 12 13 14 15 14 15 14 13 12 12 12 11 11 11 13 11 9 11 12 12 10 11 13 15 9 13 14 9 10 13 15 15 15 14 14 14 15 16 16 15 14 5 5 6 6 6 7 12 8 7 10 14 16 16 16 16 15 14 15 16 15
7 7 7 8 11 15 14 15 14 14 8 8 8 8 8 9 9 9 10 7 9 11 12 13 13 13 14 15 15 14 13 11 12 10 11 14 15 14 16 9 9 10 12 15 15 11 13 19 14 10 15 14 12 13 15 15 16 15 15 16 16 16 16 16 10 5 6 6 7 6 7 8 7 8 14 16 16 16 16 16 15 15 14 15 12
7 8 8 6 6 8 10 9 10 8 10 14 12 12 11 10 9 10 12 14 14 13 13 13 13 14 16 15 14 16 15 14 14 16 11 16 16 16 13 10 10 10 11 16 20 14 12 13 14 14 13 15 16 15 15 15 15 16 16 16 16 16 16 16 7 6 5 6 6 7 7 6 7 11 15 16 16 17 17 17 16 16 15 14 14
9 10 8 5 5 12 14 14 12 10 8 8 8 8 9 9 9 8 10 13 12 12 12 13 14 15 15 14 14 14 15 15 16 14 14 16 17 16 16 11 14 10 13 13 17 17 15 13 14 14 14 15 15 15 15 15 15 16 17 17 16 15 16 11 8 7 6 7 6 7 7 6 6 12 15 16 17 17 17 17 17 17 16 16 15
9 8 7 8 8 7 15 15 14 13 12 8 7 8 10 14 14 13 12 12 12 12 12 13 14 15 15 14 14 15 16 16 16 15 15 14 15 17 17 17 13 17 15 15 15 17 16 15 15 15 16 16 16 16 15 15 16 16 15 14 14 15 16 6 6 6 6 7 7 8 7 5 10 14 15 16 16 16 16 17 17 17 17 17 16
9 8 9 9 8 7 8 13 16 16 15 13 9 9 12 13 12 12 12 12 12 12 13 13 14 15 14 14 14 15 14 14 13 13 13 14 14 14 15 16 16 15 16 16 16 16 17 17 16 15 16 17 16 16 15 14 14 15 15 14 14 14 14 10 5 5 6 6 7 7 6 6 13 15 15 15 15 15 15 16 16 17 17 16 17
10 10 11 9 9 8 8 8 12 16 14 16 15 14 13 13 13 12 11 12 13 14 15 15 16 15 14 14 15 14 14 14 13 13 13 14 14 14 15 15 16 14 16 16 16 16 16 16 15 15 14 14 14 14 14 14 15 15 14 14 14 13 13 12 5 5 5 7 7 8 7 6 10 14 15 15 14 13 13 14 15 15 16 16 16
9 10 10 9 10 8 8 8 9 9 8 10 13 15 15 15 13 12 13 14 15 15 15 15 15 15 15 15 15 15 15 14 14 14 14 13 14 14 15 16 16 16 15 15 15 15 15 15 14 14 13 14 14 14 15 15 15 15 15 14 13 14 14 13 5 5 6 7 6 6 6 11 15 14 15 15 14 13 13 13 12 12 13 15 16
10 10 9 10 9 8 9 8 8 8 8 7 6 8 15 15 14 14 15 15 15 15 15 15 15 15 15 15 15 15 15 15 15 15 14 14 14 14 15 16 16 16 15 15 14 15 14 14 14 14 14 14 14 14 15 15 15 15 15 15 14 14 15 8 6 6 6 5 5 5 6 14 14 13 14 14 14 14 13 12 13 14 14 14 14
8 10 9 8 7 8 8 7 8 8 7 6 6 7 11 14 14 15 15 15 15 15 16 16 15 14 14 15 15 11 12 11 16 12 14 15 15 14 15 15 16 15 15 15 14 14 14 15 15 15 15 15 15 14 15 15 15 16 15 15 14 14 7 6 7 7 6 6 7 6 10 16 15 13 12 13 15 14 13 12 12 12 12 13 14
6 8 8 7 8 8 9 7 7 8 7 6 6 7 8 12 10 13 16 15 15 15 15 13 12 10 11 12 11 7 7 6 7 7 12 10 14 15 15 16 16 15 16 15 14 14 14 15 15 16 15 16 15 15 15 16 16 16 16 15 14 6 6 6 6 5 5 5 6 6 16 15 15 15 13 11 13 14 13 12 14 14 12 12 14
6 7 7 7 7 7 8 7 7 8 6 5 4 5 5 7 7 5 6 8 10 10 7 6 7 4 9 7 6 5 6 6 6 8 5 9 10 16 16 16 16 16 15 15 15 15 15 15 16 16 17 17 18 8 7 12 16 16 16 16 8 5 6 6 6 5 6 6 6 8 17 16 15 15 15 13 11 10 10 12 13 14 12 11 14
7 6 6 7 6 6 7 8 7 7 6 5 4 4 4 4 6 6 5 8 7 6 5 5 4 5 5 6 5 5 5 6 6 9 8 13 11 15 15 15 15 15 14 15 15 15 15 16 17 16 17 18 9 6 7 6 7 14 13 8 6 5 6 6 6 5 6 6 6 13 16 16 15 15 15 14 13 12 12 13 14 15 12 9 12
5 5 5 6 7 7 7 5 6 6 6 6 5 5 5 4 5 5 5 5 5 5 4 5 5 5 5 5 5 5 5 5 8 11 10 6 7 11 14 14 13 13 15 10 11 12 16 15 15 16 11 6 6 6 6 6 6 6 6 6 6 6 6 6 5 5 6 7 6 15 16 15 15 15 14 14 13 13 13 13 14 15 13 11 11
2 4 5 6 6 6 7 7 6 5 5 6 5 6 4 5 5 5 5 5 5 5 5 4 5 6 6 5 5 4 5 5 5 5 5 6 5 6 6 6 5 6 11 7 6 7 7 7 6 7 6 6 6 6 6 6 5 6 6 6 6 5 6 5 6 6 6 6 7 15 16 15 15 15 15 14 14 13 13 13 14 15 13 12 11
3 6 5 6 6 6 6 5 5 6 4 5 4 3 6 6 5 4 4 5 4 4 5 5 6 5 5 5 5 6 6 6 5 6 6 5 5 5 6 5 6 6 6 6 6 6 6 5 6 6 5 5 6 6 6 6 6 6 5 5 6 5 5 6 6 6 6 6 7 16 16 15 15 15 15 14 14 14 13 13 14 15 14 13 11
5 5 4 4 5 6 6 6 6 6 7 5 4 5 5 4 4 3 4 5 4 5 5 5 5 5 5 4 5 6 6 5 5 5 6 5 5 5 6 5 6 6 5 5 6 6 6 6 6 6 6 6 6 6 7 6 6 6 6 6 5 5 5 6 6 6 6 6 8 17 16 16 15 15 14 14 14 14 13 13 14 14 15 14 14
4 4 5 5 6 7 6 6 6 6 6 5 5 5 4 4 4 3 4 4 4 5 5 5 5 6 5 5 4 4 5 5 5 6 6 5 6 6 5 6 5 5 6 5 6 6 6 6 6 6 8 8 7 6 6 6 6 6 6 6 6 5 6 6 6 6 6 6 6 12 17 16 15 15 15 14 14 14 14 13 14 15 15 15 14
5 5 5 6 6 5 6 7 6 6 6 5 6 4 4 4 4 4 5 4 4 4 4 4 5 5 5 5 4 5 5 5 6 6 5 6 6 6 6 6 5 6 6 7 6 7 7 6 6 9 8 8 7 7 7 6 5 5 5 6 6 6 6 6 6 7 6 6 6 9 16 17 15 15 14 14 14 15 14 14 14 15 15 14 10
3 3 5 5 5 6 6 6 6 5 5 5 5 5 4 4 4 4 4 3 4 4 4 5 5 5 5 5 5 5 5 5 6 6 6 6 6 6 6 6 6 6 6 7 6 7 6 6 6 8 9 8 7 7 8 6 6 6 6 7 6 6 6 6 7 6 6 6 6 7 16 16 16 15 15 15 15 15 15 15 15 15 14 12 10
3 5 5 5 4 6 6 6 6 5 5 6 5 5 4 5 5 3 4 5 4 5 5 5 5 5 5 6 6 6 5 6 6 6 5 6 6 6 7 6 7 7 6 6 6 7 7 5 5 8 7 8 7 6 7 7 7 6 6 6 6 6 6 6 6 6 6 6 6 6 10 17 16 16 16 15 15 15 15 13 14 13 15 14 11
4 4 3 3 6 6 6 6 6 5 6 6 4 5 5 4 3 4 5 5 5 5 5 5 5 5 6 6 6 6 5 6 6 6 6 6 6 7 7 7 7 7 6 6 6 7 6 6 7 6 8 7 7 7 6 6 7 6 6 7 6 6 6 6 6 6 6 6 6 6 7 9 15 16 17 16 15 15 14 14 11 10 11 13 15
1 1 3 4 4 4 5 6 5 6 6 5 5 3 4 4 5 4 5 5 5 5 5 5 5 5 5 6 6 6 5 6 6 6 6 6 7 7 7 7 7 7 7 7 7 6 6 7 9 7 8 6 6 7 6 6 7 6 6 7 6 6 6 6 5 6 6 6 6 7 6 8 9 14 16 16 16 15 15 15 14 12 11 12 13
2 3 4 4 3 3 3 4 5 7 5 5 4 5 5 4 4 5 5 5 5 5 5 5 5 6 6 6 6 6 6 6 6 7 7 7 7 7 7 7 7 7 7 7 7 7 6 8 7 6 7 8 6 7 7 7 7 6 6 6 6 6 5 6 6 6 6 6 7 7 7 7 7 8 9 15 15 14 15 15 14 14 13 12 11
3 4 3 3 4 4 4 4 4 5 5 6 5 4 3 5 5 5 5 5 5 5 5 5 5 5 6 6 7 6 7 7 7 6 7 6 7 7 7 7 7 6 6 7 7 7 7 8 7 8 7 6 9 8 8 7 8 8 7 6 6 6 6 6 6 7 8 8 7 8 7 7 6 7 7 7 11 14 15 14 13 13 13 13 11
3 2 3 4 4 5 4 4 5 6 5 4 4 4 5 4 4 5 5 5 5 5 5 5 5 6 6 6 7 7 7 8 7 7 6 7 6 7 7 7 8 7 8 8 8 8 9 7 7 7 8 10 10 10 7 7 6 7 7 6 5 6 5 7 9 10 10 8 7 7 6 7 7 7 8 8 6 8 14 13 13 13 13 13 12
2 4 3 3 4 5 5 5 5 5 5 5 5 5 5 5 5 5 5 5 6 5 5 5 6 6 6 6 7 7 7 8 8 7 6 7 7 7 7 8 7 8 8 7 7 8 8 7 8 8 7 9 9 10 9 7 7 6 6 6 6 6 9 8 9 10 10 11 9 8 10 10 9 11 6 6 5 5 9 11 11 12 12 12 12
3 3 2 2 2 3 3 4 4 4 3 4 3 4 4 5 5 5 5 6 5 5 5 5 6 6 6 6 7 7 7 8 7 7 6 6 6 6 7 9 8 8 8 8 8 9 7 8 10 9 9 7 7 8 11 8 6 5 5 5 6 5 9 9 11 11 10 11 11 10 9 9 9 9 7 6 5 4 5 8 10 11 11 11 11
3 3 3 3 3 4 4 4 5 5 5 4 4 4 5 5 5 6 6 6 5 5 5 6 5 5 6 6 7 7 7 7 7 8 6 7 7 7 7 9 7 7 8 9 8 8 9 9 10 11 8 7 7 7 8 6 5 5 4 5 5 5 8 10 11 11 12 11 11 11 8 9 10 10 11 9 6 5 6 6 5 4 4 8 10
3 3 3 4 4 4 4 4 5 4 3 4 5 5 5 5 6 6 6 5 5 6 5 5 5 6 6 7 7 7 7 7 8 7 7 7 7 7 8 8 7 7 8 10 8 9 9 10 11 11 10 8 6 7 8 7 7 4 5 5 4 4 12 10 12 12 11 11 10 10 10 10 10 10 11 11 10 7 6 5 2 2 3 6 8
3 3 3 3 3 3 3 4 4 4 5 5 5 5 4 4 4 4 3 3 5 5 6 6 6 5 7 7 7 7 8 8 8 8 8 7 7 7 8 8 8 8 9 9 9 10 10 9 8 8 11 9 6 8 8 6 6 7 5 5 6 6 9 11 14 11 11 9 10 10 10 11 11 12 11 10 11 11 8 7 5 4 4 3 3
2 3 2 1 2 3 3 3 4 5 5 4 3 4 2 1 1 1 1 2 5 6 5 6 6 6 7 7 7 8 8 8 7 8 7 7 8 8 8 8 8 8 8 10 10 10 10 9 9 9 7 8 7 9 7 7 6 7 6 6 6 6 4 10 13 12 13 12 10 10 10 11 13 12 11 11 12 12 10 8 7 7 6 7 6
3 2 0 2 4 4 3 3 4 4 4 3 5 4 2 2 3 2 3 2 1 2 2 3 4 7 7 7 7 8 8 8 8 8 7 8 8 8 8 7 8 8 8 9 10 11 10 10 11 9 9 7 6 6 7 8 6 9 4 4 4 6 4 7 10 12 12 11 11 13 11 13 13 11 10 12 12 11 10 9 9 9 9 8 7
3 2 1 2 2 3 3 3 4 4 4 4 3 2 3 3 3 4 4 3 1 4 5 5 8 9 9 7 7 8 8 7 8 8 7 8 8 8 8 8 8 8 8 9 8 10 10 11 11 10 9 9 7 5 6 6 6 9 6 5 4 4 6 9 9 9 9 11 13 12 11 12 13 14 13 14 13 11 10 10 11 10 10 9 9
2 2 0 1 2 2 2 3 3 3 3 4 4 3 5 6 6 6 6 6 4 6 7 8 7 6 7 8 8 7 8 8 8 9 8 8 8 8 8 8 8 8 8 9 7 8 10 8 11 10 11 9 9 5 6 7 6 7 4 4 3 5 7 6 4 8 10 11 13 12 12 14 14 12 12 12 13 11 10 11 12 14 13 10 12
2 1 0 0 1 3 3 3 3 4 4 3 3 5 5 5 5 5 6 5 6 6 7 5 7 6 6 5 7 8 8 8 8 9 8 8 8 8 8 7 8 8 8 9 9 8 10 11 11 9 10 10 7 8 6 7 5 8 6 4 4 4 4 5 4 6 6 7 8 11 12 12 12 12 13 14 14 13 11 13 14 14 15 13 13
2 1 0 0 2 3 3 3 3 3 3 3 4 4 6 5 3 3 4 3 4 3 2 2 4 5 5 7 6 7 8 8 8 8 9 8 8 8 8 7 8 8 8 8 9 9 8 10 9 9 9 10 10 10 11 8 6 7 6 7 7 6 5 5 6 3 7 8 9 9 11 11 12 14 14 14 13 11 14 13 12 14 14 13 14
3 2 0 1 2 3 3 3 3 3 3 3 5 4 5 3 5 4 4 4 3 3 5 5 4 4 6 7 7 7 8 8 8 8 8 8 8 8 8 8 8 7 8 8 9 10 8 9 9 9 8 9 10 9 9 9 9 8 8 7 8 8 8 10 8 5 3 7 10 8 9 10 10 11 12 12 13 16 15 14 15 14 13 15 14
3 3 2 2 1 2 2 3 4 3 4 4 4 5 3 4 4 4 5 3 3 4 3 4 6 6 7 7 7 7 7 8 7 8 8 8 8 7 8 8 8 8 7 7 9 11 11 10 10 10 9 9 9 8 8 8 9 10 8 8 7 8 7 8 8 7 7 6 8 9 10 8 8 12 12 12 13 12 13 14 14 14 13 14 15
3 2 2 2 1 2 2 3 4 4 3 5 4 5 4 4 5 4 5 5 5 5 5 7 6 5 6 7 6 7 7 7 8 8 8 8 8 7 7 8 8 8 8 8 10 10 10 10 8 8 10 11 9 9 9 9 8 8 8 7 8 7 7 7 9 8 6 7 7 8 8 10 13 10 10 12 14 13 13 13 14 14 14 13 13
2 3 3 2 2 2 2 3 3 3 4 4 5 4 4 4 4 4 4 4 5 5 7 7 7 7 7 7 7 7 6 6 7 7 8 7 8 7 7 7 6 7 8 7 8 9 9 9 8 10 10 11 9 9 9 9 8 9 9 8 9 9 8 9 8 8 7 7 7 8 9 8 7 8 12 10 10 12 11 11 13 13 12 12 13
Wind_Direction
322 349 329 343 358 18 27 31 34 33 30 28 21 21 13 15 18 21 21 25 25 26 26 24 23 22 20 19 18 17 14 15 12 12 13 10 6 5 1 2 357 355 354 355 358 359 349 348 334 336 337 336 333 330 325 326 318 311 309 305 302 301 296 291 274 272 276 274 268 273 275 273 261 259 261 261 256 253 258 262 265 267 259 262 258
306 321 330 335 348 16 21 25 28 25 25 17 18 13 15 20 21 23 26 26 26 28 26 25 23 22 21 20 19 16 15 14 12 13 10 10 7 6 4 3 0 357 354 354 357 353 351 348 345 347 344 340 339 338 339 332 323 315 311 309 307 297 295 286 285 288 279 269 270 272 276 270 279 279 267 264 257 253 252 251 254 252 247 251 250
286 330 339 333 349 358 13 22 22 22 15 16 17 17 23 23 25 25 30 28 27 26 25 23 19 17 16 15 12 12 11 12 10 9 11 10 10 8 8 9 7 5 1 358 358 359 356 354 350 347 345 343 340 341 340 335 329 323 315 310 298 299 296 293 285 274 270 270 268 265 261 266 270 264 270 266 271 288 275 260 253 247 239 243 241
354 337 340 338 349 356 8 12 12 9 19 18 20 23 22 27 29 32 31 29 27 25 22 20 17 14 10 6 6 6 7 4 8 5 10 12 15 16 15 13 10 6 2 358 358 360 360 358 353 352 350 347 342 343 343 338 334 330 326 322 316 309 307 301 296 291 287 287 281 269 262 251 251 260 262 266 265 261 274 277 276 280 277 253 243
1 334 337 337 349 339 351 5 359 13 20 19 21 19 23 29 33 33 31 31 30 28 24 23 19 15 13 13 10 11 8 4 6 4 16 14 17 17 14 11 8 5 2 359 359 358 357 355 353 351 350 347 346 344 343 343 340 335 331 326 321 316 308 301 297 294 292 287 282 281 283 267 237 259 267 269 264 254 254 262 268 267 265 265 256
329 323 333 330 337 348 344 354 2 11 19 17 19 21 28 35 40 37 37 34 32 34 30 28 26 22 16 16 20 14 10 15 8 355 11 12 11 11 10 6 6 3 1 359 357 355 354 352 348 347 346 344 344 343 342 339 336 331 328 326 322 319 314 309 302 297 293 289 288 285 263 255 255 255 265 267 269 269 264 253 249 250 255 258 259
304 311 329 342 354 332 336 356 359 9 14 15 20 37 39 39 39 38 37 37 39 39 34 31 29 25 20 15 13 15 9 7 8 355 4 8 4 2 3 1 2 358 357 355 352 350 350 349 346 343 341 342 343 343 340 336 329 325 321 318 316 314 311 308 306 302 296 291 273 268 252 252 249 246 255 262 268 270 270 268 256 250 248 252 252
327 334 344 13 354 324 335 354 355 4 14 22 34 46 44 42 41 42 42 44 43 40 36 35 28 23 18 13 10 5 2 14 356 350 355 359 358 346 350 355 353 353 347 345 344 343 343 344 341 337 335 338 340 340 336 332 327 322 319 316 314 311 310 307 304 302 297 293 272 247 245 244 245 241 252 259 265 268 270 269 264 264 264 255 244
355 6 17 20 346 331 342 356 355 8 26 38 43 48 49 45 45 45 46 43 42 44 41 33 27 24 19 12 8 360 356 6 348 352 319 352 346 337 338 341 341 342 340 332 330 336 337 335 335 332 330 334 338 338 335 330 325 321 318 317 315 313 309 307 303 299 297 292 281 260 246 251 248 242 251 258 265 268 269 268 270 268 265 264 248
4 10 15 7 343 317 349 3 2 20 39 50 48 49 49 46 48 48 42 35 45 49 42 34 30 27 19 14 4 357 357 353 358 353 343 360 341 346 349 334 334 332 324 327 319 333 328 326 328 326 326 330 335 337 335 331 325 321 318 317 316 316 313 307 300 294 287 283 273 263 255 256 261 260 255 260 264 268 270 270 267 263 257 254 250
9 6 4 357 328 8 9 6 9 27 37 43 50 53 49 48 47 45 39 37 39 47 43 36 32 26 23 15 8 360 353 351 353 348 347 352 346 341 328 326 328 328 323 327 345 337 328 315 303 334 324 313 333 336 334 331 327 325 321 321 324 320 316 311 306 278 261 258 262 264 265 266 267 263 260 263 266 269 271 273 272 268 268 261 253
25 26 22 22 21 10 5 10 14 358 22 41 50 49 47 41 39 33 22 27 51 48 42 37 31 28 26 18 11 4 353 349 348 340 354 356 351 339 332 343 340 345 338 334 330 325 354 2 347 344 341 328 332 338 330 324 324 322 322 326 323 318 312 309 305 282 256 248 251 253 254 258 257 255 261 264 265 267 270 272 272 269 262 267 263
41 36 27 18 31 360 15 3 15 359 3 20 21 31 30 29 24 30 34 49 53 48 42 40 38 36 34 27 18 8 5 7 12 10 11 3 3 348 333 339 337 339 359 3 354 353 353 1 356 350 341 337 335 330 330 321 316 315 322 324 321 319 311 306 307 311 292 267 258 258 253 251 252 259 265 266 266 267 269 269 270 270 268 249 245
46 43 26 35 27 22 25 25 24 15 28 39 22 26 22 28 33 52 53 54 49 44 40 40 40 41 40 29 20 12 13 15 12 11 4 9 359 351 3 349 341 351 19 4 -0 359 348 354 353 346 341 332 328 327 323 321 319 321 323 323 324 320 315 315 354 345 328 311 290 277 261 252 248 255 263 265 267 270 270 270 270 270 269 267 245
54 47 41 35 26 18 23 24 27 30 39 56 28 20 23 51 51 55 52 45 40 40 39 39 38 43 40 30 20 12 10 11 13 9 5 4 2 8 15 10 9 18 11 9 359 357 353 350 349 347 345 336 328 324 317 320 327 327 324 327 328 327 328 352 351 341 332 322 310 295 279 262 256 258 262 265 266 269 271 271 271 270 269 266 261
46 42 40 33 25 22 18 19 25 28 37 53 48 36 49 49 50 51 46 41 38 38 39 39 40 43 39 31 22 15 10 8 6 8 11 9 9 14 16 16 12 8 8 4 3 357 353 353 345 341 342 337 330 324 329 334 327 329 331 330 331 335 341 357 354 333 330 317 300 292 283 270 269 269 268 269 270 270 271 272 271 268 267 265 264
38 37 38 26 26 22 18 16 19 24 21 31 35 50 47 44 47 49 45 45 46 44 42 42 41 39 36 31 22 16 11 6 7 7 13 10 13 17 17 13 11 9 9 3 2 356 353 351 353 350 348 340 338 341 343 341 337 333 332 334 340 348 351 359 341 330 325 319 319 313 301 286 276 275 276 276 273 273 274 274 276 280 277 273 266
38 37 33 25 25 17 21 20 19 16 18 21 20 25 37 39 47 50 51 51 50 49 48 46 43 39 33 31 26 18 13 9 13 11 16 11 16 19 18 15 10 13 9 4 1 356 353 351 351 348 344 341 339 341 343 338 333 334 335 338 344 353 352 355 336 329 323 327 319 306 304 298 293 288 283 280 276 274 274 274 272 268 268 269 266
34 34 31 27 16 17 17 19 19 15 15 20 22 10 31 32 47 55 57 55 53 52 48 45 42 38 34 30 29 25 19 12 16 14 16 14 19 21 16 15 9 6 7 2 0 355 353 349 348 344 340 339 339 341 338 335 334 335 336 338 344 355 353 351 335 328 324 323 315 316 308 308 306 303 298 289 279 274 273 275 269 264 263 266 270
31 29 26 20 14 20 16 16 17 14 12 15 17 19 27 40 48 60 60 58 55 54 51 47 40 39 34 32 29 27 14 4 14 13 14 13 14 18 15 13 9 2 2 358 355 352 349 347 343 341 340 340 338 341 337 336 336 336 336 339 346 355 350 335 329 323 319 318 321 316 308 320 320 314 307 298 286 277 274 277 279 274 270 273 276
23 24 25 13 13 18 16 15 11 13 10 10 19 21 28 43 37 52 56 57 54 53 53 45 40 25 36 29 24 20 13 0 356 6 12 10 8 14 14 14 11 5 4 359 351 350 348 345 342 340 340 342 342 343 337 338 338 336 337 339 346 347 331 328 323 314 316 314 313 303 315 327 329 324 316 303 289 281 279 280 283 283 274 275 281
17 13 12 14 14 14 12 12 9 6 4 12 22 22 18 43 48 39 54 49 51 47 40 39 29 13 19 17 17 15 11 358 354 10 357 10 0 12 12 11 10 5 5 1 354 350 348 347 344 343 344 344 343 338 327 329 331 333 336 339 339 313 322 322 315 311 313 310 309 306 318 324 328 326 320 311 306 304 303 293 288 285 277 277 283
24 10 2 8 13 7 11 8 4 358 359 15 22 22 25 47 50 44 41 49 46 41 35 27 15 11 14 15 14 10 6 358 356 10 12 9 6 10 9 7 3 358 356 358 349 345 344 343 341 341 344 340 336 324 320 317 316 324 329 327 305 309 314 312 309 305 303 303 307 310 317 321 323 322 319 315 312 300 287 285 289 290 289 280 284
15 6 357 357 12 12 359 4 1 351 3 2 15 24 22 41 51 42 44 45 41 38 31 24 17 14 16 15 11 4 2 356 358 1 5 355 349 355 358 357 350 346 350 347 333 331 337 331 330 335 335 325 318 316 315 307 307 305 310 309 305 298 309 312 308 304 299 302 300 309 315 316 317 316 315 315 313 305 296 289 285 285 283 280 278
353 3 12 358 1 9 358 356 347 360 6 1 19 12 17 41 35 42 46 40 41 32 26 19 16 17 10 12 6 4 355 356 354 352 353 349 343 345 343 339 333 326 338 326 322 318 325 318 319 325 315 317 318 317 313 311 311 309 305 307 303 297 308 313 308 299 297 297 295 309 313 314 314 313 312 310 308 304 295 288 285 281 275 271 272
356 33 1 353 358 1 3 347 354 2 5 3 9 -0 32 34 18 31 37 39 29 29 25 15 13 8 6 1 7 2 358 356 350 351 347 342 341 340 336 330 328 324 330 323 320 323 322 318 320 317 315 312 310 309 312 313 308 308 307 309 304 301 310 309 305 300 299 297 300 310 313 313 311 310 309 308 304 301 297 286 281 276 266 261 263
12 17 356 352 359 360 356 358 8 353 359 358 20 27 32 34 21 34 50 33 15 32 19 10 5 8 10 353 13 2 356 349 345 343 342 338 340 335 332 328 328 327 325 324 317 319 318 319 321 316 305 314 316 314 310 309 307 305 307 310 311 304 311 307 303 302 301 299 301 310 314 313 311 310 308 304 299 295 293 284 280 277 274 262 246
32 360 2 352 1 352 352 9 356 5 349 354 27 27 11 38 37 27 29 39 31 29 13 7 7 13 6 357 3 5 352 348 347 345 339 338 339 332 326 330 328 322 320 322 322 324 324 326 322 320 329 331 321 313 306 304 309 308 300 310 309 308 309 310 306 301 298 298 300 307 313 315 315 314 312 307 302 296 288 283 276 271 273 275 277
23 3 353 5 347 350 358 3 358 358 357 350 32 11 19 42 42 34 23 34 24 21 5 13 19 1 359 358 354 354 354 354 350 344 334 341 333 332 328 326 324 329 331 330 329 326 327 330 328 333 331 334 330 325 318 317 310 303 304 308 310 310 314 310 308 305 303 302 301 303 315 317 316 317 316 314 310 301 285 275 270 263 259 265 275
340 356 7 351 346 354 2 354 354 352 349 14 21 23 10 43 39 34 16 29 17 2 18 20 6 1 350 354 355 354 1 351 345 342 345 335 331 328 331 334 334 335 338 333 330 325 324 325 326 334 337 334 335 329 329 316 314 317 313 319 310 313 311 308 309 307 308 306 305 306 316 319 319 318 317 315 312 308 296 271 261 259 258 255 253
16 14 356 350 346 7 350 348 357 354 7 25 16 25 24 35 27 21 28 26 14 18 20 9 -0 350 350 354 356 353 356 355 350 340 335 336 334 337 339 333 338 341 336 328 322 323 321 318 318 329 332 329 328 327 324 324 325 320 324 315 316 314 313 310 306 308 310 309 308 309 313 318 318 318 316 315 312 311 308 297 264 258 267 262 248
27 357 346 348 7 354 344 348 355 351 17 21 17 24 25 19 18 23 25 22 26 26 16 6 354 352 355 358 351 346 359 350 349 340 340 341 339 341 338 341 338 333 330 324 322 322 317 321 323 323 328 320 330 334 328 332 331 325 322 322 320 319 317 315 313 314 310 309 308 307 308 311 315 315 314 313 311 307 306 309 301 272 261 268 266
331 343 349 23 356 345 351 340 347 4 21 10 13 12 17 26 29 18 24 29 29 25 18 357 354 359 359 357 354 344 -0 350 343 345 342 343 342 341 338 334 331 328 329 326 325 325 331 328 329 331 325 324 330 329 327 336 337 329 325 326 324 320 318 314 312 313 313 312 313 311 306 308 307 312 311 310 309 308 311 313 312 295 273 264 261
31 5 29 12 336 356 352 342 3 6 10 6 20 17 19 21 34 27 29 31 26 28 10 0 2 3 356 359 356 346 357 346 351 347 351 345 341 338 332 332 331 328 329 334 337 333 329 325 325 322 324 324 320 330 335 343 339 330 329 327 324 317 316 315 317 311 306 315 318 310 311 308 308 306 307 308 307 308 311 310 307 306 303 291 277
53 31 31 348 7 352 355 359 358 3 6 8 14 14 24 30 31 40 34 27 27 24 4 5 7 357 359 358 357 347 357 351 350 351 342 342 341 338 335 331 327 332 336 340 337 332 328 328 328 327 319 324 345 344 344 342 341 333 330 330 323 320 324 324 323 329 332 323 318 310 306 303 305 306 299 294 304 307 305 303 302 300 300 298 286
62 47 29 20 8 350 2 6 1 7 3 3 12 25 36 40 36 47 39 36 30 18 3 1 359 359 2 359 357 351 358 350 347 349 340 341 343 337 330 328 337 343 345 341 341 337 337 326 330 327 329 344 347 351 344 347 335 329 333 327 322 328 329 341 346 349 344 332 322 315 298 299 303 297 306 308 298 296 302 301 300 296 295 302 311
41 51 39 17 0 349 360 3 3 353 355 2 24 35 43 45 40 36 45 39 33 13 0 358 8 2 359 359 352 353 353 349 347 347 342 342 344 337 333 336 342 348 344 340 338 336 335 333 334 336 332 345 345 348 347 345 334 334 333 331 335 338 356 356 356 1 355 356 343 338 341 334 317 312 295 274 274 283 299 298 295 293 295 302 305
55 61 40 25 334 339 350 1 7 1 359 3 26 40 48 53 44 35 38 37 21 12 3 8 6 358 358 355 352 356 351 347 348 346 343 342 344 336 333 344 346 348 344 343 338 339 338 343 347 342 347 343 344 349 347 335 337 340 336 341 342 332 11 9 12 9 7 3 2 359 352 350 347 337 308 279 274 275 267 286 292 293 298 297 294
68 62 32 4 2 357 3 3 7 357 2 12 27 47 52 56 50 38 34 23 8 8 13 8 359 358 1 351 360 357 348 349 349 346 348 348 347 343 343 345 347 346 347 346 344 339 346 348 350 351 353 349 344 343 339 325 345 347 332 336 327 345 23 25 21 18 13 6 6 3 355 360 358 355 347 337 322 290 288 272 269 269 279 295 287
65 63 41 13 2 356 2 8 5 347 2 33 31 35 47 47 41 25 26 6 -0 7 3 5 357 5 356 359 360 358 352 350 352 346 353 353 350 346 344 345 350 351 353 355 345 343 347 346 348 351 357 349 356 350 348 347 352 354 340 329 324 6 37 26 25 19 14 5 8 5 5 4 9 359 358 358 353 360 20 10 20 340 302 281 278
57 61 46 9 2 344 8 5 341 5 32 26 29 38 31 11 29 32 14 358 8 8 2 357 3 358 1 1 2 360 356 354 354 352 357 352 352 346 350 351 354 357 360 352 346 344 350 345 340 342 358 355 356 4 1 357 1 355 347 332 352 8 42 28 28 20 16 8 6 6 7 11 10 9 5 4 2 7 8 19 12 9 358 331 280
63 64 54 345 354 7 18 352 9 23 28 40 49 56 23 89 129 353 294 343 24 7 344 357 350 357 5 4 4 1 358 358 353 353 354 356 354 354 354 351 354 355 359 356 351 351 351 351 351 353 1 357 357 4 9 356 22 359 327 335 336 348 50 38 29 20 19 15 9 14 13 13 17 11 7 13 9 5 359 9 19 17 15 21 22
114 92 295 18 18 12 356 11 21 31 16 43 57 63 44 53 76 34 42 347 353 19 296 326 358 7 9 4 3 3 360 356 354 354 355 356 359 357 354 347 354 355 357 355 354 352 357 354 358 359 1 11 3 2 17 30 354 337 274 284 350 348 34 30 28 21 15 15 16 23 15 16 15 11 14 23 13 4 359 1 23 23 24 22 23
102 83 43 40 15 20 2 18 30 32 28 30 68 60 92 82 70 56 27 65 357 342 356 12 15 11 6 354 4 3 355 355 356 358 355 0 4 358 350 353 353 -0 1 358 352 352 354 359 4 2 6 8 359 351 25 21 5 1 14 351 310 334 5 19 14 10 10 16 20 18 18 16 15 16 24 23 13 3 358 10 26 26 25 21 22
136 149 202 47 49 21 348 17 35 37 26 40 43 54 49 38 28 26 27 10 1 10 17 9 7 2 0 360 349 353 358 359 359 1 0 0 2 359 355 352 360 0 4 1 354 353 356 358 7 5 8 8 358 348 7 13 358 22 16 351 341 21 22 346 338 18 10 18 15 15 16 22 19 17 24 19 23 6 1 18 28 33 26 20 28
145 190 250 314 46 28 9 16 39 36 34 28 45 60 57 66 48 44 29 15 11 10 9 350 346 354 341 316 348 1 0 1 2 0 3 360 2 358 355 359 3 2 8 7 2 356 359 3 11 8 7 7 2 5 356 10 11 18 22 30 44 36 1 336 356 22 358 27 16 21 21 16 20 22 24 21 14 13 4 20 27 33 29 27 30
182 176 333 7 38 32 9 11 37 43 27 36 39 59 57 58 76 97 95 60 30 333 302 315 346 333 336 2 351 356 3 5 -0 3 3 358 1 -0 360 5 6 2 7 6 8 6 356 7 8 9 8 8 12 26 31 18 14 16 6 16 35 41 23 19 28 286 12 358 17 9 16 14 16 22 23 17 13 7 20 20 22 35 29 29 31
151 118 162 48 68 45 25 16 19 43 22 34 38 42 72 57 59 45 54 46 30 350 349 350 355 358 9 6 357 -0 0 7 2 2 2 357 1 3 4 10 12 1 8 7 8 8 5 6 11 14 14 18 16 24 30 28 31 15 9 16 25 32 29 35 27 28 26 27 9 354 17 12 21 23 20 14 10 24 15 17 22 27 27 31 30
140 153 172 137 60 26 29 19 34 33 24 36 52 27 55 86 72 60 48 18 23 13 348 13 17 6 16 3 7 356 0 3 3 2 0 360 5 3 4 12 12 4 10 4 8 10 12 8 11 16 17 20 17 19 31 30 34 31 15 17 21 26 25 33 24 24 30 18 19 14 1 348 23 22 12 13 18 20 20 20 21 27 27 31 30
157 145 117 93 63 34 34 40 23 25 29 41 49 43 43 61 59 51 57 23 14 6 24 22 16 7 17 6 -0 2 0 360 357 359 1 3 4 3 6 13 10 4 11 4 4 6 7 14 13 18 26 28 19 19 27 30 33 30 28 24 34 23 29 30 25 12 8 22 28 4 355 3 18 3 7 8 13 15 21 21 23 25 25 26 26
127 129 118 110 99 75 36 39 3 24 33 40 50 42 46 55 70 65 60 39 17 29 27 20 11 15 13 2 5 355 353 358 354 354 5 2 5 2 6 8 15 13 10 3 7 8 7 10 10 20 31 33 21 19 22 31 31 27 25 28 37 38 38 44 31 25 25 13 4 7 352 355 5 360 2 357 9 15 18 23 27 25 23 26 27